Location: Newark
(40.7830°N, 8.7430°E)
Time: 05:54:33
(UTC+00:00)

ISS - Pass Details

Date: 16 September 2019
Orbit: 411 x 421 km, 51.6° (Epoch: 17 October)

Event Time Altitude Azimuth Distance (km) Brightness Sun altitude
Exits shadow 04:21:13 12° 242° (WSW) 1,355 -1.8 -9.3°
Maximum altitude 04:21:48 13° 231° (SW) 1,330 -1.8 -9.1°
Drops below altitude 10° 04:23:21 10° 203° (SSW) 1,485 -1.3 -8.9°
Sets 04:26:21 0° 173° (S) 2,344 0.0 -8.3°
